Location: Newark
(35.2672°N, 80.7344°W)
Time: 15:17:22
(UTC+00:00)

Vanguard 1 - Pass Details

Date: 24 January 2020
Orbit: 650 x 3833 km, 34.2° (Epoch: 16 February)

Event Time Altitude Azimuth Distance (km) Brightness Sun altitude
Rises 23:51:14 0° 267° (W) 2,953 14.3 -14.1°
Reaches altitude 10° 23:53:20 10° 266° (W) 2,075 13.1 -14.5°
Maximum altitude 23:57:50 82° 179° (S) 780 9.5 -15.4°
Enters shadow 00:01:38 23° 94° (E) 1,873 10.9 -16.2°
